TimeHST,TemperatureF,Dew PointF,Humidity,Sea Level PressureIn,VisibilityMPH,Wind Direction,Wind SpeedMPH,Gust SpeedMPH,PrecipitationIn,Events,Conditions,WindDirDegrees,DateUTC
12:56 AM,68.0,66.9,96,30.07,10.0,East,6.9,-,N/A,,Mostly Cloudy,90,2013-10-31 10:56:00
1:56 AM,70.0,68.9,96,30.05,10.0,ESE,3.5,-,N/A,,Partly Cloudy,110,2013-10-31 11:56:00
2:08 AM,69.8,68.0,94,30.11,10.0,East,4.6,-,N/A,,Partly Cloudy,90,2013-10-31 12:08:00
2:56 AM,66.9,66.9,100,30.03,10.0,East,5.8,-,N/A,,Clear,80,2013-10-31 12:56:00
3:56 AM,66.9,66.9,100,30.04,10.0,ESE,5.8,-,N/A,,Clear,110,2013-10-31 13:56:00
4:56 AM,68.0,68.0,100,30.03,10.0,Calm,Calm,-,N/A,,Clear,0,2013-10-31 14:56:00
5:56 AM,66.9,66.9,100,30.05,10.0,Calm,Calm,-,N/A,,Clear,0,2013-10-31 15:56:00
6:56 AM,66.9,66.9,100,30.06,10.0,East,3.5,-,N/A,,Clear,90,2013-10-31 16:56:00
7:56 AM,72.9,68.0,85,30.08,10.0,Calm,Calm,-,N/A,,Clear,0,2013-10-31 17:56:00
8:25 AM,75.2,69.8,83,30.15,10.0,Calm,Calm,-,N/A,,Mostly Cloudy,0,2013-10-31 18:25:00
8:33 AM,75.2,68.0,78,30.15,10.0,Calm,Calm,-,N/A,,Scattered Clouds,0,2013-10-31 18:33:00
8:56 AM,79.0,68.9,71,30.09,10.0,WSW,4.6,-,N/A,,Clear,240,2013-10-31 18:56:00
9:14 AM,78.8,68.0,69,30.16,10.0,Variable,3.5,-,N/A,,Mostly Cloudy,0,2013-10-31 19:14:00
9:41 AM,82.4,66.2,58,30.16,10.0,West,6.9,-,N/A,,Scattered Clouds,260,2013-10-31 19:41:00
9:56 AM,79.0,66.9,66,30.09,10.0,West,4.6,-,N/A,,Scattered Clouds,260,2013-10-31 19:56:00
10:08 AM,78.8,66.2,65,30.16,10.0,SW,4.6,-,N/A,,Mostly Cloudy,230,2013-10-31 20:08:00
10:56 AM,78.8,66.2,65,30.15,10.0,WSW,5.8,-,N/A,,Mostly Cloudy,250,2013-10-31 20:56:00
11:27 AM,80.6,66.2,61,30.14,10.0,West,10.4,-,N/A,,Mostly Cloudy,260,2013-10-31 21:27:00
11:56 AM,74.8,68.0,79,30.08,10.0,West,6.9,-,0.02,Rain,Light Rain,260,2013-10-31 21:56:00
12:56 PM,77.0,70.0,79,30.05,10.0,Calm,Calm,-,0.01,Rain,Light Rain,0,2013-10-31 22:56:00
1:56 PM,78.8,68.0,69,30.09,10.0,NNW,6.9,-,N/A,,Mostly Cloudy,330,2013-10-31 23:56:00
2:20 PM,78.8,68.0,69,30.08,10.0,NE,13.8,-,N/A,,Scattered Clouds,40,2013-11-01 00:20:00
2:56 PM,81.0,68.0,65,30.01,10.0,NE,16.1,-,N/A,,Clear,40,2013-11-01 00:56:00
3:56 PM,79.0,66.9,66,30.01,10.0,NE,21.9,28.8,N/A,,Clear,50,2013-11-01 01:56:00
4:56 PM,77.0,66.9,71,30.02,10.0,NE,17.3,25.3,N/A,,Clear,50,2013-11-01 02:56:00
5:56 PM,72.9,66.9,82,30.04,10.0,ENE,13.8,-,N/A,,Clear,60,2013-11-01 03:56:00
6:56 PM,72.9,66.9,82,30.05,10.0,ENE,19.6,24.2,N/A,,Clear,60,2013-11-01 04:56:00
7:56 PM,72.0,64.9,78,30.06,10.0,NE,23.0,27.6,N/A,,Clear,50,2013-11-01 05:56:00
8:56 PM,72.0,65.8,81,30.07,10.0,ENE,20.7,-,N/A,,Clear,70,2013-11-01 06:56:00
9:34 PM,73.4,66.2,78,30.15,10.0,NE,11.5,25.3,N/A,,Mostly Cloudy,50,2013-11-01 07:34:00
9:43 PM,73.4,66.2,78,30.14,10.0,East,10.4,-,N/A,,Mostly Cloudy,100,2013-11-01 07:43:00
9:56 PM,72.9,66.9,82,30.07,10.0,ENE,15.0,20.7,N/A,,Mostly Cloudy,70,2013-11-01 07:56:00
10:10 PM,71.6,66.2,83,30.13,10.0,NNE,21.9,27.6,N/A,,Partly Cloudy,30,2013-11-01 08:10:00
10:23 PM,71.6,66.2,83,30.12,10.0,NE,26.5,38.0,N/A,,Clear,40,2013-11-01 08:23:00
10:56 PM,72.0,66.9,84,30.05,10.0,NE,24.2,36.8,N/A,,Clear,50,2013-11-01 08:56:00
11:56 PM,72.0,65.8,81,30.05,10.0,NNE,17.3,33.4,N/A,,Clear,30,2013-11-01 09:56:00